Flag for Argentina Weather past 2 weeks in Zárate, Buenos Aires, Argentina

Now
46 °F

Clear.


Feels Like: 40 °F
Forecast: 45 / 59 °F
Wind: 16 mph from South

Location: Buenos Aires Airport

Current Time: Sep 1, 2015 at 3:58:45 AM

Latest Report: Sep 1, 2015 at 3:00 AM


Visibility: 10 mi

Pressure: 30.45 "Hg

Humidity: 62%

Dew point: 34 °F

Location of ZárateLocation

Historic Weather in Zárate — Graph

°F

Zárate temperature yesterday

Maximum temperature yesterday: 77 °F (at 2:00 PM)
Minimum temperature yesterday: 52 °F (at 11:00 PM)
Average temperature yesterday: 66 °F

Past Weeks' High & Low Weather Summary

 TemperatureHumidityPressure
High77 °F (Aug 31, 2:00 PM)94% (Aug 17, 12:00 PM)30.45 "Hg (Aug 17, 12:00 PM)
Low46 °F (Aug 23, 11:00 PM)28% (Aug 27, 4:00 PM)29.71 "Hg (Aug 22, 6:00 AM)
Average59 °F70%30.00 "Hg
* Reported Aug 17 3:00 AM — Sep 1 3:00 AM, Zárate, Weather by CustomWeather, © 2015

Note: Actual official high and low records may vary slightly from our data, if they occured in-between our weather recording intervals... More about our weather records

Advertising

Zárate weather history for previous 24 hours

 ConditionsComfort  
Time TempWeatherWind HumidityBarometerVisibility
3:00 AM
Tue, Sep 1
46 °FClear.16 mph62%30.45 "Hg10 mi
2:00 AM48 °FPassing clouds.21 mph54%30.45 "HgN/A
12:00 AM50 °FClear.23 mph50%30.39 "Hg10 mi
11:00 PM
Mon, Aug 31
52 °FClear.28 mph47%30.36 "Hg10 mi
10:00 PM54 °FClear.24 mph51%30.33 "Hg10 mi
9:00 PM57 °FPassing clouds.31 mph55%30.30 "HgN/A
8:00 PM61 °FPassing clouds.28 mph52%30.24 "HgN/A
6:00 PM68 °FClear.29 mph43%30.12 "Hg10 mi
5:00 PM72 °FScattered clouds.26 mph44%30.07 "HgN/A
4:00 PM73 °FPassing clouds.22 mph41%30.04 "HgN/A
3:00 PM75 °FSunny.20 mph39%30.01 "Hg10 mi
2:00 PM77 °FPassing clouds.22 mph39%29.98 "HgN/A
1:00 PM73 °FClear.17 mph53%29.98 "Hg6 mi
12:00 PM72 °FClear.13 mph57%29.98 "Hg6 mi
11:00 AM70 °FClear.8 mph60%29.95 "Hg6 mi
10:00 AM66 °FPassing clouds.8 mph68%29.95 "HgN/A
9:00 AM63 °FSunny.10 mph77%29.92 "Hg10 mi
8:00 AM63 °FSunny.9 mph77%29.89 "Hg10 mi
7:00 AM64 °FSunny.14 mph73%29.89 "Hg10 mi
6:00 AM63 °FClear.13 mph77%29.86 "Hg10 mi
5:00 AM63 °FClear.13 mph83%29.83 "Hg10 mi
3:00 AM64 °FPassing clouds.13 mph88%29.83 "HgN/A
Weather by CustomWeather, © 2015

See weather overviewHow to use our weather pages